TimeCDT,TemperatureF,Dew PointF,Humidity,Sea Level PressureIn,VisibilityMPH,Wind Direction,Wind SpeedMPH,Gust SpeedMPH,PrecipitationIn,Events,Conditions,WindDirDegrees,DateUTC
12:15 AM,59.0,39.2,48,30.17,9.0,East,8.1,-,N/A,,Partly Cloudy,80,2014-04-16 05:15:00
12:35 AM,59.0,41.0,51,30.16,10.0,ESE,8.1,-,N/A,,Unknown,110,2014-04-16 05:35:00
12:55 AM,59.0,41.0,51,30.16,10.0,ESE,10.4,-,N/A,,Mostly Cloudy,110,2014-04-16 05:55:00
1:15 AM,60.8,41.0,48,30.15,10.0,East,10.4,18.4,N/A,,Scattered Clouds,90,2014-04-16 06:15:00
1:35 AM,60.8,39.2,45,30.15,10.0,East,10.4,20.7,N/A,,Partly Cloudy,90,2014-04-16 06:35:00
1:55 AM,60.8,41.0,48,30.14,10.0,East,10.4,17.3,N/A,,Partly Cloudy,100,2014-04-16 06:55:00
2:15 AM,60.8,41.0,48,30.14,10.0,ESE,13.8,20.7,N/A,,Scattered Clouds,110,2014-04-16 07:15:00
2:35 AM,60.8,42.8,52,30.14,10.0,ESE,11.5,18.4,N/A,,Scattered Clouds,110,2014-04-16 07:35:00
2:55 AM,60.8,42.8,52,30.13,10.0,East,10.4,17.3,N/A,,Mostly Cloudy,100,2014-04-16 07:55:00
3:15 AM,60.8,42.8,52,30.13,10.0,East,9.2,19.6,N/A,,Unknown,90,2014-04-16 08:15:00
3:35 AM,60.8,42.8,52,30.13,10.0,ESE,10.4,17.3,N/A,,Unknown,110,2014-04-16 08:35:00
3:55 AM,60.8,42.8,52,30.12,10.0,ESE,11.5,-,N/A,,Unknown,110,2014-04-16 08:55:00
4:15 AM,60.8,44.6,55,30.11,10.0,ESE,12.7,-,N/A,,Unknown,110,2014-04-16 09:15:00
4:35 AM,60.8,42.8,52,30.11,10.0,East,12.7,-,N/A,,Mostly Cloudy,100,2014-04-16 09:35:00
4:55 AM,60.8,44.6,55,30.11,10.0,ESE,13.8,-,N/A,,Unknown,120,2014-04-16 09:55:00
5:15 AM,60.8,44.6,55,30.10,10.0,ESE,11.5,-,N/A,,Overcast,110,2014-04-16 10:15:00
5:35 AM,60.8,44.6,55,30.11,10.0,ESE,15.0,-,N/A,,Mostly Cloudy,110,2014-04-16 10:35:00
5:55 AM,60.8,44.6,55,30.11,10.0,ESE,15.0,-,N/A,,Mostly Cloudy,110,2014-04-16 10:55:00
6:15 AM,62.6,44.6,52,30.11,10.0,ESE,6.9,17.3,N/A,,Mostly Cloudy,120,2014-04-16 11:15:00
6:35 AM,62.6,46.4,55,30.10,10.0,ESE,12.7,19.6,N/A,,Unknown,110,2014-04-16 11:35:00
6:55 AM,62.6,46.4,55,30.10,9.0,ESE,12.7,-,N/A,,Mostly Cloudy,120,2014-04-16 11:55:00
7:15 AM,62.6,46.4,55,30.10,9.0,ESE,9.2,16.1,N/A,,Mostly Cloudy,120,2014-04-16 12:15:00
7:35 AM,62.6,46.4,55,30.10,9.0,SE,9.2,18.4,N/A,,Mostly Cloudy,130,2014-04-16 12:35:00
7:55 AM,62.6,46.4,55,30.11,9.0,SE,8.1,19.6,N/A,,Scattered Clouds,130,2014-04-16 12:55:00
8:15 AM,62.6,46.4,55,30.12,9.0,ESE,15.0,-,N/A,,Mostly Cloudy,110,2014-04-16 13:15:00
8:35 AM,62.6,46.4,55,30.12,9.0,ESE,13.8,19.6,N/A,,Overcast,110,2014-04-16 13:35:00
8:55 AM,62.6,46.4,55,30.12,9.0,ESE,15.0,-,N/A,,Mostly Cloudy,110,2014-04-16 13:55:00
9:15 AM,62.6,46.4,55,30.12,9.0,ESE,16.1,-,N/A,,Scattered Clouds,120,2014-04-16 14:15:00
9:35 AM,62.6,46.4,55,30.12,9.0,ESE,17.3,-,N/A,,Scattered Clouds,110,2014-04-16 14:35:00
9:55 AM,64.4,48.2,56,30.12,9.0,SE,8.1,17.3,N/A,,Mostly Cloudy,130,2014-04-16 14:55:00
10:15 AM,64.4,48.2,56,30.13,9.0,ESE,13.8,20.7,N/A,,Mostly Cloudy,120,2014-04-16 15:15:00
10:35 AM,64.4,48.2,56,30.14,9.0,ESE,11.5,-,N/A,,Scattered Clouds,120,2014-04-16 15:35:00
10:55 AM,64.4,48.2,56,30.14,9.0,ESE,13.8,-,N/A,,Mostly Cloudy,110,2014-04-16 15:55:00
11:15 AM,64.4,48.2,56,30.14,9.0,ESE,12.7,20.7,N/A,,Scattered Clouds,110,2014-04-16 16:15:00
11:35 AM,64.4,48.2,56,30.13,8.0,ESE,15.0,-,N/A,,Mostly Cloudy,120,2014-04-16 16:35:00
11:55 AM,64.4,50.0,59,30.12,8.0,ESE,15.0,20.7,N/A,,Mostly Cloudy,120,2014-04-16 16:55:00
12:15 PM,64.4,48.2,56,30.12,9.0,SE,9.2,18.4,N/A,,Mostly Cloudy,130,2014-04-16 17:15:00
12:35 PM,66.2,50.0,56,30.11,9.0,ESE,9.2,17.3,N/A,,Scattered Clouds,120,2014-04-16 17:35:00
12:55 PM,64.4,50.0,59,30.10,9.0,ESE,12.7,18.4,N/A,,Partly Cloudy,110,2014-04-16 17:55:00
1:15 PM,66.2,50.0,56,30.09,9.0,ESE,9.2,18.4,N/A,,Partly Cloudy,120,2014-04-16 18:15:00
1:35 PM,66.2,50.0,56,30.08,9.0,ESE,13.8,19.6,N/A,,Partly Cloudy,120,2014-04-16 18:35:00
1:55 PM,64.4,50.0,59,30.08,8.0,ESE,15.0,-,N/A,,Partly Cloudy,120,2014-04-16 18:55:00
2:15 PM,64.4,50.0,59,30.07,8.0,ESE,16.1,-,N/A,,Scattered Clouds,110,2014-04-16 19:15:00
2:35 PM,66.2,48.2,52,30.05,9.0,ESE,17.3,-,N/A,,Scattered Clouds,120,2014-04-16 19:35:00
2:55 PM,66.2,50.0,56,30.05,9.0,ESE,16.1,-,N/A,,Partly Cloudy,110,2014-04-16 19:55:00
3:15 PM,66.2,50.0,56,30.04,9.0,ESE,15.0,-,N/A,,Clear,110,2014-04-16 20:15:00
3:35 PM,66.2,51.8,60,30.03,9.0,ESE,13.8,-,N/A,,Partly Cloudy,110,2014-04-16 20:35:00
3:55 PM,66.2,51.8,60,30.02,8.0,ESE,16.1,-,N/A,,Scattered Clouds,120,2014-04-16 20:55:00
4:15 PM,66.2,51.8,60,30.01,9.0,ESE,16.1,-,N/A,,Scattered Clouds,110,2014-04-16 21:15:00
4:35 PM,66.2,50.0,56,30.01,9.0,ESE,18.4,-,N/A,,Partly Cloudy,120,2014-04-16 21:35:00
4:55 PM,66.2,51.8,60,30.00,9.0,ESE,17.3,-,N/A,,Clear,110,2014-04-16 21:55:00
5:15 PM,66.2,51.8,60,30.00,9.0,ESE,11.5,18.4,N/A,,Partly Cloudy,120,2014-04-16 22:15:00
5:35 PM,66.2,51.8,60,29.99,9.0,ESE,13.8,19.6,N/A,,Partly Cloudy,110,2014-04-16 22:35:00
5:55 PM,66.2,51.8,60,29.99,9.0,ESE,15.0,-,N/A,,Partly Cloudy,120,2014-04-16 22:55:00
6:15 PM,66.2,53.6,64,29.98,8.0,ESE,13.8,-,N/A,,Partly Cloudy,110,2014-04-16 23:15:00
6:35 PM,66.2,53.6,64,29.98,9.0,ESE,11.5,19.6,N/A,,Scattered Clouds,120,2014-04-16 23:35:00
6:55 PM,66.2,53.6,64,29.99,9.0,ESE,10.4,18.4,N/A,,Mostly Cloudy,120,2014-04-16 23:55:00
7:15 PM,66.2,53.6,64,29.99,9.0,SE,8.1,17.3,N/A,,Mostly Cloudy,130,2014-04-17 00:15:00
7:35 PM,66.2,53.6,64,29.99,8.0,SE,10.4,17.3,N/A,,Overcast,130,2014-04-17 00:35:00
7:55 PM,66.2,53.6,64,29.99,8.0,ESE,15.0,-,N/A,,Overcast,110,2014-04-17 00:55:00
8:15 PM,66.2,53.6,64,29.99,8.0,ESE,15.0,-,N/A,,Unknown,120,2014-04-17 01:15:00
8:35 PM,66.2,53.6,64,30.00,9.0,ESE,16.1,-,N/A,,Unknown,120,2014-04-17 01:35:00
8:55 PM,66.2,55.4,68,30.00,10.0,ESE,16.1,-,N/A,,Unknown,110,2014-04-17 01:55:00
9:15 PM,66.2,53.6,64,30.00,10.0,ESE,17.3,-,N/A,,Unknown,120,2014-04-17 02:15:00
9:35 PM,66.2,55.4,68,30.00,9.0,ESE,16.1,-,N/A,,Unknown,110,2014-04-17 02:35:00
9:55 PM,66.2,55.4,68,30.00,9.0,ESE,16.1,-,N/A,,Unknown,110,2014-04-17 02:55:00
10:15 PM,66.2,55.4,68,30.00,9.0,ESE,18.4,-,N/A,,Unknown,110,2014-04-17 03:15:00
10:35 PM,68.0,55.4,64,30.01,9.0,ESE,18.4,-,N/A,,Unknown,110,2014-04-17 03:35:00
10:55 PM,68.0,55.4,64,30.00,10.0,ESE,16.1,-,N/A,,Unknown,110,2014-04-17 03:55:00
11:15 PM,68.0,55.4,64,30.00,9.0,ESE,20.7,-,N/A,,Unknown,120,2014-04-17 04:15:00
11:35 PM,68.0,55.4,64,30.00,9.0,ESE,20.7,-,N/A,,Unknown,110,2014-04-17 04:35:00
11:55 PM,68.0,55.4,64,30.00,9.0,ESE,20.7,-,N/A,,Unknown,110,2014-04-17 04:55:00